Location: ??
(35.3149°N, 139.6204°E)
Time: 10:34:15
(UTC+00:00)

NOSS 3-1 (A) - Pass Details

Date: 03 August 2024
Orbit: 655 x 1555 km, 63.4° (Epoch: 28 August)

Event Time Altitude Azimuth Distance (km) Brightness Sun altitude
Rises 18:19:38 0° 325° (NW) 4,040 6.8 -17.3°
Reaches altitude 10° 18:22:11 10° 323° (NW) 3,191 6.2 -16.9°
Maximum altitude 18:30:03 69° 243° (WSW) 1,485 4.2 -15.6°
Drops below altitude 10° 18:39:15 10° 162° (SSE) 3,690 6.3 -14.1°
Sets 18:42:24 0° 160° (SSE) 4,701 6.9 -13.5°
